RH
69 69 67 67 67 67 67 67 65 66 67 66 63 61 66 72 73 75 75 73 68 65 62 60 58 59 56 51 44 37 30 23 20 15 17 23 23 27 26 23 24 20 18 11 5 5 5 5 5 5 5 5 6 5 5 5 5 5 5 5 5 5 5 5 6 6 6 7 7 7 7 7 8 8 8 8 9 8 9 9 9 10 10 11 10 10 9 9 9 8 8 7 7 7 7 7 7
74 73 73 71 67 69 72 69 66 68 70 72 68 65 69 71 74 71 68 67 65 62 60 58 56 52 47 43 37 30 25 21 17 13 12 11 12 14 11 9 10 10 10 7 5 5 5 5 5 5 5 5 5 5 5 5 5 5 5 5 6 6 6 6 6 7 7 7 7 7 7 8 8 8 9 8 9 9 9 9 10 11 11 12 11 11 10 10 9 9 9 8 8 7 7 7 7
76 76 77 76 73 72 76 75 70 71 73 74 68 67 71 68 68 69 66 65 62 60 58 55 53 46 40 36 29 24 19 15 11 9 8 6 7 7 5 5 5 6 6 5 5 5 5 5 5 5 5 6 6 6 5 6 6 5 6 6 6 6 6 6 7 7 7 7 7 7 7 8 8 8 9 9 9 9 9 10 10 11 12 12 12 12 11 11 10 10 9 9 9 8 8 8 8
77 77 76 76 75 73 78 78 72 74 73 73 69 67 69 61 60 66 65 62 59 57 56 54 53 50 44 35 27 23 15 10 9 8 7 6 6 5 5 5 4 5 5 5 5 5 5 5 5 6 5 6 6 6 6 6 6 6 6 6 6 6 6 7 6 7 7 7 7 7 8 8 8 9 9 10 10 10 10 10 11 12 13 13 13 13 12 12 11 11 10 10 9 9 9 8 8
76 76 77 75 75 74 77 77 75 75 72 74 70 64 64 61 59 61 58 55 55 55 53 49 48 49 45 36 28 21 15 13 11 10 10 8 8 7 6 5 5 5 5 6 6 6 6 6 6 6 6 6 6 6 6 6 6 6 6 7 7 7 7 7 7 7 7 7 8 8 9 9 9 10 10 10 10 11 11 11 13 13 14 14 14 14 13 13 12 11 10 10 10 9 9 9 9
78 78 78 77 76 75 76 77 77 73 70 72 68 62 64 64 59 55 54 53 52 49 44 40 40 42 40 34 27 21 17 15 13 13 13 11 10 9 8 7 6 5 5 6 6 7 6 6 6 6 6 6 7 6 6 6 7 7 7 7 7 7 7 7 7 7 8 8 9 9 10 10 10 11 11 11 11 12 12 13 14 15 15 15 15 15 14 14 12 12 11 10 10 10 9 9 9
81 81 79 78 77 76 76 75 74 68 61 63 65 63 62 62 60 54 52 46 39 35 33 34 34 34 34 32 27 22 19 17 16 16 14 13 11 11 10 8 7 7 7 7 7 7 6 7 7 7 7 6 7 7 7 7 7 7 7 7 7 8 8 8 8 8 9 9 10 11 11 12 12 12 12 12 12 13 14 14 15 16 16 16 16 15 15 14 13 12 11 11 10 10 10 9 9
79 78 78 77 75 74 74 71 69 59 49 56 62 61 58 56 54 48 41 30 21 22 27 31 30 27 28 28 25 22 19 18 17 18 16 14 13 12 11 10 10 9 9 9 9 9 8 8 8 7 7 7 7 7 7 7 7 8 7 8 8 8 9 9 9 10 10 11 12 12 13 13 13 13 13 13 13 13 14 15 16 16 16 16 16 16 15 14 13 13 12 11 10 10 10 10 10
76 74 76 71 68 69 70 69 61 51 49 58 59 54 52 48 45 39 29 19 11 15 24 28 25 22 23 22 21 21 20 19 19 19 17 15 15 14 13 13 12 12 11 11 11 10 10 9 9 9 8 8 8 8 8 8 8 8 9 9 10 10 10 11 11 12 12 13 13 14 14 14 14 14 14 14 14 14 14 15 16 17 17 17 16 16 16 15 14 13 12 11 11 10 10 10 10
74 69 72 70 68 67 65 61 49 44 52 56 53 47 44 41 37 31 23 18 10 10 18 21 19 18 20 20 19 21 21 21 21 19 18 17 16 16 15 15 14 13 13 12 12 12 11 11 10 10 10 10 9 10 9 10 10 10 11 11 12 13 13 14 14 14 15 15 15 15 15 15 15 15 15 14 15 15 15 16 18 18 18 18 17 17 16 15 14 13 12 11 11 11 10 10 10
60 53 57 60 57 56 50 46 39 38 42 38 39 37 36 34 28 23 19 16 10 9 14 18 21 22 21 20 19 20 23 23 23 21 21 19 17 17 16 16 15 15 15 14 14 13 13 12 12 12 12 12 11 11 11 12 12 13 14 14 15 15 16 16 16 16 16 16 16 16 16 17 16 16 16 16 16 16 16 17 19 19 19 19 18 17 17 16 15 13 12 12 11 11 10 10 10
42 47 50 50 45 43 37 35 34 34 32 26 29 28 28 27 22 20 15 12 8 7 15 21 25 25 22 21 20 21 26 26 25 24 22 20 19 19 18 17 17 17 17 16 15 14 14 14 14 14 13 14 13 13 14 14 15 15 16 17 17 17 18 18 18 18 18 17 17 17 17 18 17 17 18 18 18 18 18 19 20 20 20 19 18 17 17 16 14 13 12 12 11 10 10 10 10
39 52 52 50 47 46 41 37 31 31 31 24 26 25 24 22 19 18 12 10 7 10 21 23 24 27 25 22 20 22 27 27 26 25 23 22 22 20 19 19 19 18 18 17 16 16 15 16 15 15 15 15 15 15 16 16 17 17 18 18 19 19 19 19 19 19 19 18 18 19 19 19 19 19 19 19 19 19 19 20 20 21 21 20 18 18 17 15 13 13 12 12 11 11 11 11 11
40 51 49 47 47 48 46 40 32 30 29 25 25 24 22 20 17 15 11 10 10 15 21 22 24 26 26 24 23 25 28 28 27 26 25 24 23 22 21 20 19 19 18 18 18 18 17 18 17 17 17 17 17 17 17 18 19 19 20 20 20 20 20 20 20 20 20 20 20 20 20 20 20 20 20 20 20 20 20 20 21 21 21 20 19 18 16 15 14 13 13 12 13 13 13 13 13
34 43 42 39 37 38 36 34 29 26 25 24 24 21 20 18 15 12 10 10 12 16 17 21 26 26 27 27 27 29 30 29 28 28 27 27 26 24 22 20 20 19 19 19 19 20 20 20 20 19 19 19 19 19 20 20 21 21 21 21 21 21 21 21 21 21 21 22 22 21 22 22 21 21 21 21 21 21 22 22 22 23 22 21 20 18 16 16 15 14 14 15 15 15 16 15 15
22 29 33 28 21 20 22 24 23 23 24 22 21 20 19 17 13 11 11 12 12 15 15 19 22 24 29 30 29 31 31 30 29 29 29 29 28 27 24 22 21 21 21 21 22 22 22 22 22 21 21 21 21 22 22 22 22 22 22 22 22 22 22 22 22 23 23 23 23 23 23 23 22 22 22 22 23 23 24 24 24 25 23 21 20 19 17 17 16 16 17 18 18 18 18 18 18
11 17 22 17 10 13 20 24 21 21 22 20 19 18 17 15 12 12 13 13 12 13 14 15 17 19 24 29 31 33 33 33 33 33 33 32 31 28 26 25 24 24 24 24 23 23 24 24 23 23 23 23 23 24 24 23 24 23 23 23 23 23 23 23 23 24 24 25 24 25 25 24 23 23 24 24 25 25 26 27 26 26 24 23 21 20 19 17 17 18 19 20 20 21 21 22 22
7 9 12 9 9 16 23 23 21 20 19 19 18 17 16 14 12 13 14 13 14 16 15 16 19 21 22 25 29 31 32 34 36 36 34 32 30 29 28 28 28 28 28 28 27 25 25 25 25 25 25 24 24 25 25 25 25 24 24 24 24 24 24 24 25 25 25 26 26 26 26 25 25 24 25 26 26 27 28 29 28 28 26 25 23 22 20 19 19 20 21 21 22 24 24 24 24
9 9 8 8 14 22 22 21 20 19 19 18 17 15 14 13 12 13 17 17 18 22 22 21 25 27 27 28 29 29 28 30 33 32 31 30 30 30 31 32 32 31 31 30 30 28 27 26 26 26 26 26 25 26 26 25 25 25 25 25 25 25 25 25 26 27 27 27 27 27 27 27 27 26 27 27 27 28 28 29 28 29 28 27 26 24 23 21 21 22 23 23 24 25 27 27 27
12 11 10 12 20 24 21 20 20 19 19 17 15 13 12 13 14 13 18 22 22 26 28 28 32 34 33 34 33 30 28 28 27 28 29 30 30 31 32 33 32 31 29 29 30 29 28 27 27 27 28 28 27 26 26 26 25 25 25 25 26 25 25 26 27 28 28 28 28 28 28 28 28 27 27 27 27 28 28 28 27 27 28 28 28 27 26 26 25 25 25 25 26 27 28 29 30
14 13 12 14 21 22 19 19 18 18 17 16 14 13 12 14 16 15 18 22 25 29 33 34 37 39 38 38 36 31 29 27 25 26 26 26 28 29 29 30 29 28 28 28 30 30 29 29 28 28 28 27 26 26 26 25 25 26 26 26 26 26 26 27 28 28 28 29 29 29 29 29 29 28 28 28 27 28 27 27 26 26 26 27 27 28 29 30 30 29 28 27 28 28 29 30 30
15 13 13 15 17 18 18 17 17 17 16 14 14 13 14 14 16 17 17 20 24 29 36 37 36 37 37 36 35 32 29 26 25 24 24 24 25 25 25 26 27 28 29 30 31 31 30 29 29 29 28 27 26 25 25 26 26 27 27 27 28 28 28 29 29 29 29 29 29 29 29 30 30 30 30 29 29 28 28 27 27 26 26 26 26 28 30 32 34 33 31 30 29 30 30 31 31
17 15 16 16 17 18 17 17 18 18 16 15 15 15 16 16 16 17 17 20 22 24 30 34 33 34 33 33 33 32 31 28 26 25 25 25 26 25 25 26 27 28 30 31 33 33 32 31 31 30 29 28 27 27 26 26 27 28 28 29 29 29 30 30 30 29 29 29 29 30 30 31 32 33 33 33 32 31 31 30 29 28 27 26 25 26 30 34 36 36 35 32 31 31 32 33 33
18 18 17 17 17 18 19 19 19 18 16 16 16 16 17 17 17 18 20 21 22 23 24 27 28 29 29 30 30 30 30 27 26 26 26 27 28 28 27 28 28 28 30 32 33 34 35 34 34 34 33 31 30 29 28 28 28 29 29 30 30 30 30 30 30 29 29 29 30 30 31 33 35 36 37 36 35 34 34 33 31 31 29 29 27 27 30 33 36 38 37 35 33 32 33 35 36
19 19 18 17 17 18 20 21 20 17 16 16 16 17 18 18 18 20 22 23 25 26 26 26 26 27 27 27 27 27 26 25 26 26 27 28 29 29 29 30 30 30 31 33 35 37 38 39 39 39 38 35 33 31 29 29 28 29 30 30 30 30 30 30 30 29 30 30 31 32 33 36 38 39 40 39 39 38 37 37 36 36 35 34 33 34 34 34 36 37 38 38 36 33 33 35 37
21 19 19 20 20 22 22 22 20 17 17 17 18 19 20 20 21 23 25 27 28 29 30 30 30 30 29 28 28 28 28 28 28 28 29 30 31 31 32 32 33 34 36 39 42 44 44 44 44 45 43 40 36 32 29 29 29 29 29 29 29 29 29 29 30 30 30 31 33 36 38 41 42 43 43 43 43 43 43 43 43 43 42 41 42 42 41 40 39 39 38 38 37 35 34 35 37
18 18 21 25 26 25 23 22 22 20 20 20 21 22 23 22 23 25 28 30 31 32 33 33 33 32 32 32 31 31 31 31 31 31 32 32 33 33 34 35 37 40 43 46 49 50 50 50 50 50 49 46 41 35 31 29 28 28 28 27 28 29 29 30 30 31 31 34 37 41 45 46 48 48 48 48 49 50 49 50 50 50 48 49 49 48 47 45 43 42 40 38 37 36 36 35 36
16 15 19 23 24 22 23 26 25 24 23 24 25 25 25 25 25 27 30 32 34 35 35 34 34 34 34 34 33 34 34 34 34 34 34 35 35 35 37 39 42 45 48 51 53 53 54 54 55 55 54 52 47 41 35 31 28 27 27 27 28 29 29 30 31 33 35 38 44 48 51 52 53 54 54 55 55 56 56 56 56 55 54 54 54 52 50 48 46 44 42 40 38 37 37 36 36
16 16 17 18 19 23 27 29 28 27 25 26 27 27 30 30 29 31 32 35 37 37 37 36 36 36 35 35 35 36 36 37 38 38 38 38 38 39 41 42 44 47 50 52 54 56 57 57 57 58 57 56 52 48 43 39 34 30 28 28 29 29 31 33 36 40 43 47 52 55 57 58 59 61 60 61 62 62 61 61 60 60 59 58 56 54 53 51 49 47 44 42 41 40 39 38 38
16 19 22 24 24 27 31 31 30 28 28 29 28 33 41 38 32 33 34 36 37 38 40 40 40 39 38 39 39 40 40 42 42 43 43 42 43 43 43 44 45 46 48 50 52 54 56 57 57 58 57 57 55 54 52 49 46 42 38 36 36 37 38 42 47 51 54 57 59 61 63 65 66 67 66 67 68 67 66 66 65 64 62 61 59 58 57 55 53 51 49 47 45 44 42 41 40
25 28 32 33 30 32 34 32 31 30 30 31 29 37 47 42 36 37 36 39 41 42 42 41 40 39 39 40 40 42 42 44 46 47 47 47 47 47 46 47 46 46 47 48 49 51 52 53 54 54 54 55 55 55 55 54 53 52 50 49 48 49 50 53 57 60 63 65 66 66 68 70 72 73 72 72 73 72 71 71 70 69 67 66 65 63 62 61 59 57 55 53 51 50 48 47 46
35 34 33 34 33 34 35 33 32 32 32 33 32 39 47 44 40 41 41 44 45 43 41 38 37 37 38 39 40 42 43 44 46 47 49 49 49 50 50 49 49 49 49 49 50 51 51 52 52 53 53 54 55 55 56 56 57 57 57 57 58 58 59 61 63 66 69 71 71 71 71 74 77 78 77 77 78 78 77 77 76 75 73 72 72 71 70 68 66 64 63 61 58 57 55 54 53
39 35 30 30 34 35 36 35 35 35 34 33 32 37 44 44 43 45 46 45 43 40 39 38 38 38 38 39 40 41 42 43 44 46 47 48 49 49 49 50 50 50 50 51 51 52 52 53 53 54 54 55 56 56 57 57 58 59 60 62 63 64 65 66 67 70 73 75 76 76 76 78 80 82 81 80 81 81 81 81 81 80 79 78 78 77 77 76 74 71 70 69 66 64 62 60 59
36 28 21 24 33 35 38 40 38 37 36 34 33 35 42 45 46 47 46 43 41 41 40 40 39 39 39 39 40 41 42 43 44 44 45 46 46 47 48 49 49 50 52 52 52 53 53 54 55 55 56 57 57 58 59 60 60 61 63 64 66 68 70 71 71 74 78 81 82 83 83 83 84 86 86 85 85 85 85 85 84 84 83 82 81 80 80 79 78 76 75 73 72 71 69 68 66
23 19 19 28 38 39 40 41 39 38 36 34 35 37 41 46 48 46 44 42 43 42 40 39 39 38 39 39 40 42 41 40 39 38 40 42 45 48 51 53 55 56 56 56 57 58 58 59 59 59 60 61 61 62 63 63 64 65 66 68 70 73 77 79 79 81 84 87 88 89 90 89 89 90 90 90 88 88 87 87 86 85 84 82 81 80 79 79 77 77 76 75 74 73 72 71 70
20 24 28 36 43 44 41 38 38 38 36 38 40 41 43 46 48 45 42 43 42 41 39 38 38 37 39 40 41 39 32 29 27 30 36 40 44 47 52 55 58 59 58 60 61 62 64 65 66 66 67 68 69 70 71 71 71 72 72 73 77 80 82 85 86 87 89 91 93 93 94 95 94 93 93 92 90 89 87 85 83 81 79 77 75 74 72 72 71 70 70 70 70 69 68 68 68
27 30 34 40 43 42 40 39 38 38 38 43 47 47 49 49 47 44 43 43 41 39 38 36 35 37 41 41 38 28 19 20 23 28 35 39 41 42 45 48 49 50 51 52 55 59 62 64 69 72 73 76 76 76 77 77 79 80 78 77 79 83 85 86 88 89 90 92 94 94 94 93 92 90 88 85 83 80 77 73 70 66 63 62 60 60 59 58 57 57 58 58 59 59 59 58 58
30 28 33 39 38 35 40 43 42 42 43 46 51 54 55 51 46 45 43 42 40 38 35 33 34 38 42 39 30 17 13 18 23 28 33 35 38 38 40 42 41 43 43 42 47 54 58 62 69 74 75 79 82 82 84 83 82 81 78 75 76 79 83 85 84 83 82 81 81 81 81 80 80 77 73 69 65 61 57 54 51 48 46 45 45 44 44 44 43 43 43 44 44 45 45 45 45
35 33 34 35 33 31 44 54 51 49 49 48 54 58 56 50 48 47 43 40 39 35 28 27 33 39 42 36 23 13 12 17 22 27 31 33 35 37 38 38 37 38 39 41 46 53 60 67 72 75 75 76 78 77 76 74 68 61 57 54 53 55 60 63 63 63 63 63 63 62 62 62 60 57 52 49 48 45 42 40 39 37 36 36 36 36 35 35 35 34 34 34 34 34 35 35 35
35 39 38 34 31 27 40 56 56 52 49 49 55 60 57 52 50 47 43 41 38 32 23 22 30 36 38 32 19 12 11 16 19 23 28 30 32 33 33 32 29 29 32 36 40 42 47 51 53 54 52 50 48 44 41 40 37 34 31 30 31 32 35 37 38 40 43 44 44 44 43 42 40 39 36 35 34 33 33 32 32 32 33 33 33 33 33 33 33 32 32 31 31 30 30 30 31
34 40 38 31 28 26 33 43 46 48 49 51 54 58 57 52 51 49 45 44 43 35 25 23 28 30 30 25 15 10 10 14 17 20 25 28 29 27 24 24 21 20 22 25 25 24 24 24 25 26 25 25 26 26 25 24 24 23 23 23 24 25 26 26 27 28 29 29 30 30 30 30 30 30 30 30 29 29 29 29 29 30 30 31 31 31 31 32 32 32 33 33 32 32 31 30 31
34 32 27 24 24 28 33 36 42 52 59 58 53 57 61 54 52 51 46 47 45 33 22 25 30 30 29 23 13 9 10 13 15 17 21 24 26 22 17 16 15 15 17 16 15 15 15 16 16 17 18 18 20 22 22 21 21 20 19 19 19 20 21 22 22 23 23 24 25 26 27 28 28 28 29 28 28 27 27 26 26 27 26 26 27 26 27 27 27 28 29 30 30 31 31 30 31
23 21 19 22 25 28 34 36 42 52 55 50 48 57 65 59 54 53 50 48 38 21 15 18 22 24 25 20 13 9 10 13 13 13 13 14 16 15 12 11 12 13 14 12 11 12 14 16 16 15 15 15 15 17 17 17 18 17 17 18 18 19 19 20 21 22 23 24 24 25 26 26 26 26 25 25 25 25 25 25 24 24 24 25 24 24 25 25 25 25 25 25 25 26 26 27 27
16 18 16 19 25 29 33 34 39 48 44 37 41 52 59 58 55 54 51 43 27 14 11 11 12 15 16 14 10 8 10 12 11 9 8 7 8 9 9 10 11 12 12 11 11 13 15 16 16 15 14 14 14 15 16 17 17 18 18 18 18 20 20 21 22 22 23 24 24 24 24 24 24 24 24 24 25 25 25 25 25 25 26 26 26 26 25 25 25 25 24 25 24 24 24 25 25
11 11 11 15 24 29 32 33 37 46 45 37 35 41 54 62 56 55 54 38 19 12 9 7 9 11 11 10 8 6 7 8 8 7 6 7 7 7 8 9 10 11 11 11 12 13 15 15 15 15 15 15 16 16 17 18 19 19 19 19 20 20 21 22 23 23 24 24 25 25 25 26 26 26 27 27 27 27 27 27 26 26 25 25 24 23 22 21 21 20 20 20 19 20 20 20 21
7 5 7 18 27 27 28 31 36 46 50 41 29 28 49 62 51 50 52 33 15 10 6 6 7 6 6 7 7 6 7 7 7 7 7 7 8 8 8 9 10 11 11 11 12 14 15 16 16 17 17 17 17 18 18 19 20 20 21 21 21 21 22 23 24 24 25 25 26 26 27 27 27 28 28 28 28 27 26 25 24 22 20 19 18 16 15 14 14 13 13 13 13 13 13 13 14
5 2 6 15 21 24 31 34 33 44 47 36 25 22 37 52 45 40 38 22 13 10 6 7 6 5 6 5 6 6 6 7 7 7 8 8 8 8 9 9 10 11 11 12 13 14 15 16 17 18 19 19 19 19 20 20 21 22 22 23 23 23 23 24 25 25 25 26 26 26 27 27 27 27 27 26 25 23 22 21 18 16 14 13 13 12 12 12 12 12 12 12 12 11 11 11 11
4 3 5 6 7 13 27 34 33 45 47 28 21 24 32 45 42 31 26 17 15 15 8 8 7 5 6 5 6 7 6 7 7 7 8 8 8 9 9 10 10 11 12 13 14 16 17 18 19 20 21 21 21 21 21 22 23 23 24 24 24 24 24 25 25 25 26 25 25 26 26 26 25 25 23 22 20 18 17 16 14 13 12 12 13 14 15 16 15 14 14 13 13 12 12 12 11
3 5 5 6 20 28 35 41 34 37 38 17 17 29 31 37 34 27 29 24 20 19 14 11 9 6 7 7 7 7 6 7 7 7 8 8 9 9 9 10 11 12 13 14 16 17 18 19 20 21 22 22 22 23 23 24 24 25 25 25 25 25 25 25 25 25 25 24 24 24 23 23 22 21 20 18 16 15 13 13 12 13 14 15 17 18 18 17 15 15 14 14 14 14 14 14 14
5 11 8 12 40 53 51 57 49 40 31 11 17 35 33 33 33 30 33 28 23 23 19 17 15 10 9 10 9 8 7 7 7 8 8 8 9 10 11 11 12 13 14 16 18 19 19 20 21 22 23 24 24 24 25 25 25 26 26 26 25 25 25 24 24 24 23 23 22 21 20 19 19 18 17 16 14 13 12 13 14 16 19 20 20 19 17 16 16 16 16 17 17 17 17 17 17
9 16 15 14 30 38 38 50 53 47 39 19 18 34 38 33 26 25 28 26 25 27 25 24 21 16 15 15 13 9 7 8 8 8 9 9 11 12 13 13 13 14 15 17 19 20 21 21 22 24 25 26 25 25 26 26 26 26 26 26 26 25 25 24 23 22 21 21 20 19 18 17 17 16 15 14 13 13 13 16 18 21 24 24 22 20 18 18 18 19 19 20 20 20 20 20 19
9 13 17 19 24 28 32 39 40 42 46 39 31 31 30 23 15 18 24 22 23 29 32 32 26 21 20 20 16 11 8 8 9 10 12 13 15 15 14 14 14 15 17 18 20 21 22 23 24 25 26 26 26 26 27 27 27 27 27 26 26 25 24 23 22 21 20 19 18 17 16 16 15 14 14 13 13 14 16 19 23 26 27 26 24 21 20 21 22 23 23 23 24 24 23 23 22
9 9 15 25 31 35 35 33 36 41 40 35 28 22 18 16 14 15 16 18 25 32 35 31 24 21 23 23 18 11 9 9 10 13 16 17 17 15 15 15 16 17 18 20 22 23 24 24 25 26 26 27 27 28 29 28 28 28 27 26 25 24 23 22 21 20 18 17 16 15 15 14 14 13 13 13 14 17 20 23 26 29 30 28 25 23 23 24 25 26 26 27 27 27 27 26 25
8 7 11 25 38 40 36 37 45 49 40 28 22 19 17 20 19 11 11 19 26 26 24 21 21 25 28 25 17 12 12 13 16 19 21 20 18 16 16 16 17 19 20 22 23 24 25 25 26 27 27 28 28 29 29 29 28 27 27 26 25 24 22 21 19 18 16 15 14 14 13 13 13 14 14 15 18 21 24 28 30 32 32 30 27 26 26 26 28 30 31 31 31 30 30 28 27
6 7 8 15 25 25 25 35 46 49 51 46 31 19 14 15 13 8 10 17 18 17 19 22 28 32 32 26 19 18 20 21 24 26 25 22 20 19 18 18 19 21 22 23 24 24 25 26 27 28 29 29 30 30 30 29 28 27 27 25 24 23 21 19 18 16 15 14 13 13 13 14 14 15 16 19 22 25 28 31 33 34 34 32 30 29 29 31 33 34 35 35 34 34 33 31 30
8 10 10 9 15 19 20 30 37 39 50 57 49 36 19 8 7 8 13 17 16 18 22 27 32 34 31 26 21 20 20 20 23 24 23 22 22 22 20 20 21 22 23 24 25 26 27 28 28 29 30 30 30 30 30 29 28 27 26 25 23 21 19 18 16 15 14 13 14 14 14 15 16 17 20 23 26 29 32 34 35 36 36 34 33 32 33 35 37 39 40 39 38 38 36 33 32
9 9 10 7 12 22 26 33 38 41 49 54 56 49 21 3 8 13 16 18 16 18 22 25 29 30 28 23 19 17 16 18 23 25 27 27 25 23 21 22 23 24 25 27 27 28 28 28 29 30 30 31 31 31 30 29 29 28 26 24 22 20 18 17 15 14 14 14 15 16 16 17 18 20 24 27 30 33 35 37 38 38 38 38 36 36 37 39 41 43 45 44 43 41 38 36 34
12 9 12 9 9 17 27 37 41 44 46 36 36 42 20 4 12 15 14 16 14 17 21 23 26 26 23 20 18 18 18 22 29 33 36 34 27 24 23 24 26 26 27 28 28 29 28 29 30 30 31 32 31 31 30 29 29 27 26 24 21 19 17 16 15 15 15 16 16 17 18 19 21 24 28 31 35 37 39 41 41 41 42 41 41 41 41 43 46 48 49 48 46 43 40 38 35
Wind_Speed
6 7 8 9 9 7 7 8 7 7 8 10 11 10 8 7 8 7 6 5 4 7 10 11 12 13 13 11 11 10 11 11 10 9 8 9 11 12 14 14 14 14 14 14 13 11 10 10 9 10 10 10 10 11 11 11 12 12 13 13 13 14 14 14 14 14 15 15 16 16 16 16 16 16 16 17 17 17 18 17 17 16 16 16 17 17 17 16 16 16 16 16 16 19 18 16 15
5 5 6 7 8 6 6 8 6 6 8 10 10 9 10 9 9 7 5 6 7 9 9 10 12 11 11 12 11 11 11 10 10 9 9 10 12 14 14 13 13 13 12 12 12 11 10 11 10 11 11 11 12 12 12 13 13 14 14 14 14 15 15 15 15 16 16 16 17 16 17 17 16 16 17 18 18 18 18 18 17 16 16 16 16 17 17 17 17 16 16 16 16 19 19 17 17
6 6 5 7 7 6 7 8 7 6 8 11 10 8 9 10 10 8 5 7 8 8 9 12 12 11 12 12 11 11 10 9 9 8 8 10 12 14 12 10 11 11 10 10 11 11 11 11 11 12 12 12 13 13 14 15 15 15 15 15 16 16 17 17 16 16 17 17 17 16 17 17 17 17 17 18 18 18 18 18 17 17 16 16 16 17 17 17 17 16 16 16 17 19 19 17 18
7 7 7 8 8 8 8 9 8 8 11 12 12 10 10 10 6 5 6 6 7 8 12 14 13 12 13 13 12 11 9 8 8 8 9 10 12 14 12 11 12 11 10 9 11 12 13 13 13 13 13 14 14 15 16 16 16 16 16 17 17 17 18 18 17 17 17 17 17 17 17 17 17 17 17 18 18 18 18 18 18 17 17 16 16 17 17 18 17 17 17 16 17 19 19 17 17
9 8 8 8 8 8 9 9 9 12 12 11 12 9 10 9 3 4 7 7 9 12 15 16 15 12 13 13 12 10 9 8 8 9 10 11 13 15 13 12 13 12 10 10 11 13 14 14 14 14 15 16 16 17 17 17 17 17 17 18 18 18 18 18 18 18 17 17 16 17 17 17 18 17 17 18 18 18 18 18 17 17 17 17 17 17 18 18 18 18 17 16 17 18 19 17 17
9 8 8 8 7 8 9 10 9 11 11 9 13 13 12 10 8 9 9 11 14 17 18 17 15 13 12 11 11 10 10 10 9 10 11 12 14 15 14 13 13 13 12 12 12 13 15 15 16 16 17 17 17 18 19 18 18 18 18 18 19 18 18 19 19 18 17 17 16 17 17 17 17 17 17 17 17 18 17 17 18 18 18 17 17 18 18 19 19 19 18 18 17 18 19 19 18
9 8 9 8 7 8 9 9 8 10 10 8 14 16 11 8 10 10 11 14 18 19 17 15 14 14 12 10 11 10 10 11 11 11 11 12 15 16 15 14 13 13 13 13 14 14 16 16 17 18 18 19 19 19 20 19 19 18 18 18 18 18 18 18 18 18 17 17 16 17 17 17 17 17 17 17 17 18 17 18 19 19 18 18 18 18 19 19 20 20 19 19 19 19 20 20 20
7 8 11 10 8 7 8 8 8 9 7 7 13 11 6 7 7 9 13 17 19 18 15 13 13 14 11 10 10 10 11 12 11 11 11 13 16 17 17 15 13 13 13 15 16 16 16 16 18 19 19 19 19 19 20 20 19 19 19 18 18 18 18 18 18 17 17 17 17 17 17 17 17 18 18 18 18 18 18 19 20 20 19 19 19 19 20 20 20 21 20 20 20 20 21 22 22
6 7 8 8 6 7 8 9 8 8 9 10 10 7 7 5 7 11 15 18 18 16 13 12 14 14 11 10 11 10 10 11 12 12 11 12 15 17 18 17 14 13 14 16 17 17 17 17 18 19 19 19 19 19 19 19 19 19 18 18 18 18 18 17 17 17 17 17 17 17 17 17 18 18 18 19 19 19 19 20 20 20 20 20 20 20 20 21 21 21 22 22 21 21 22 23 23
6 8 6 5 6 8 10 11 8 7 8 10 10 9 7 7 10 13 16 18 18 15 12 12 13 12 9 9 11 9 9 10 11 11 11 12 14 16 18 17 15 14 14 15 17 17 18 18 18 18 19 19 19 19 19 19 19 19 18 18 18 18 18 18 18 18 18 18 18 17 17 18 18 19 20 20 20 20 20 20 21 21 21 21 21 21 21 21 22 22 23 23 23 23 22 23 24
6 6 5 5 7 9 9 8 7 5 4 5 7 8 6 6 11 14 16 17 16 14 11 9 9 9 7 8 11 9 8 9 10 12 12 13 13 15 16 17 17 16 14 15 17 18 19 19 19 19 19 20 20 21 20 20 20 19 19 19 19 19 19 19 19 19 19 19 19 19 19 19 19 20 20 21 21 21 21 21 21 22 22 22 22 22 22 22 23 23 24 24 24 24 24 24 24
7 6 4 6 6 7 7 6 7 6 6 6 6 5 5 6 10 12 14 15 15 14 9 6 6 7 7 8 11 9 7 9 11 13 12 12 14 15 16 17 17 17 16 16 17 18 19 19 20 20 20 21 21 22 22 21 21 21 21 21 20 20 19 19 19 20 20 20 20 20 20 20 20 20 21 21 21 22 22 22 22 22 23 23 23 23 23 23 24 24 24 25 24 24 24 24 24
8 7 6 8 8 7 7 8 7 9 11 10 6 4 5 8 10 13 15 15 14 12 8 6 6 7 8 9 11 10 8 10 12 12 12 13 16 17 17 17 17 16 16 17 18 18 18 19 20 21 22 22 22 22 22 22 22 22 22 21 20 20 20 20 20 20 21 21 21 21 21 21 21 21 22 22 23 23 23 23 23 24 24 24 25 24 24 24 24 24 25 25 25 25 25 25 25
11 11 10 9 9 9 9 8 5 9 11 9 8 7 8 11 12 14 14 13 11 9 8 7 7 8 9 10 10 10 10 11 12 13 14 16 18 19 19 18 18 17 17 18 18 18 19 20 21 22 23 23 23 23 23 23 22 22 22 21 21 21 21 20 21 21 21 21 22 22 22 22 22 22 23 24 24 25 25 25 25 25 25 25 25 25 25 24 24 25 25 25 25 25 25 26 26
11 13 12 10 10 9 8 7 7 11 9 7 9 10 11 12 14 15 14 11 9 8 8 7 8 8 8 8 9 9 10 12 13 14 15 17 19 19 20 20 19 18 18 18 19 19 19 20 21 22 23 23 23 23 22 22 22 22 21 21 21 21 21 21 21 21 21 22 23 23 23 23 23 24 24 24 25 25 26 26 26 26 26 26 26 26 25 25 24 24 25 25 25 25 25 26 26
10 12 12 11 9 7 4 4 9 9 7 6 8 9 11 13 15 16 11 8 8 7 7 8 9 8 7 8 9 11 11 13 14 15 16 17 18 19 20 20 20 19 19 19 19 19 19 21 22 23 24 24 23 22 22 22 22 21 21 21 22 22 22 22 22 22 22 23 24 24 23 24 25 25 24 25 25 25 26 27 27 26 26 27 27 26 26 25 25 25 25 25 25 25 26 26 26
8 9 11 10 7 5 3 5 8 5 5 5 8 10 12 15 15 12 10 10 10 9 9 10 10 9 9 10 11 12 13 14 14 15 17 17 17 18 18 19 19 19 19 20 20 20 20 21 23 24 24 24 23 21 22 23 22 21 21 22 22 23 23 23 23 22 23 23 24 24 24 25 26 26 25 25 25 26 26 27 27 27 27 27 27 27 26 26 26 26 25 25 26 26 26 27 27
6 8 9 8 5 3 3 7 9 6 6 8 12 15 17 17 14 11 10 12 12 10 10 10 10 9 10 10 11 12 14 14 14 15 16 17 17 17 17 17 18 18 18 19 21 22 22 22 23 24 24 25 24 21 22 23 23 22 22 22 24 24 25 24 23 23 24 23 24 25 25 26 27 27 26 25 26 26 26 26 27 27 27 27 28 28 27 27 27 26 26 26 27 27 27 28 28
5 6 7 5 2 3 5 8 10 9 10 12 16 19 19 15 13 13 10 10 12 10 10 9 9 9 9 9 9 11 13 14 14 15 16 17 17 17 17 17 17 18 18 19 21 23 24 24 24 24 24 25 26 25 24 24 23 23 23 24 25 26 26 26 24 24 25 25 25 26 26 26 27 28 27 26 27 28 27 27 28 28 28 28 28 28 28 28 28 28 27 27 28 28 29 29 29
4 5 6 2 2 6 9 11 13 13 14 16 19 22 20 14 11 13 8 8 10 10 10 9 9 9 9 8 8 9 11 13 15 16 17 18 19 19 19 19 20 21 21 22 22 23 25 26 26 25 24 25 27 28 27 26 25 25 26 27 27 28 28 28 26 25 26 27 27 27 27 27 28 29 28 28 28 29 29 29 29 29 29 29 29 28 28 28 28 29 29 29 30 30 30 30 30
7 6 5 2 4 10 12 15 17 16 17 19 20 21 19 13 9 10 9 8 9 10 11 11 11 10 9 10 11 12 13 16 18 20 21 22 22 23 23 23 23 24 24 24 24 25 26 27 27 27 27 27 29 29 29 28 27 27 28 29 29 30 30 30 28 27 28 28 29 29 29 29 29 30 30 30 30 30 30 30 30 31 31 31 30 29 29 29 29 29 30 30 31 32 32 32 32
8 7 5 4 6 12 14 17 18 17 18 19 19 18 16 13 11 11 11 10 11 11 10 12 14 13 13 14 15 17 18 20 21 22 24 25 25 26 26 25 24 25 25 24 25 27 29 29 29 29 29 30 32 32 31 30 29 29 29 30 31 32 32 32 30 29 29 30 30 31 31 31 31 32 33 33 32 32 32 32 32 32 32 32 32 31 30 30 30 30 31 32 32 33 33 34 34
8 7 6 7 9 12 14 16 17 17 17 17 17 15 14 13 13 12 11 11 12 13 13 14 17 17 17 18 19 20 21 22 22 24 25 26 27 27 27 26 26 26 26 26 27 28 29 30 31 31 31 32 33 33 33 31 30 30 31 32 32 33 33 33 32 31 31 32 32 33 33 34 34 34 35 35 35 35 34 34 34 34 34 34 34 33 32 31 31 32 32 32 33 34 35 35 35
11 9 9 11 12 12 14 16 17 17 16 16 15 14 14 14 14 13 12 12 12 12 13 15 17 19 21 22 23 23 24 24 24 25 25 26 26 27 28 28 28 28 27 27 28 29 30 31 32 32 32 32 33 33 33 32 31 31 31 32 33 33 34 34 34 33 34 34 34 35 35 36 36 36 37 37 37 37 37 36 36 35 36 36 36 35 34 33 33 34 34 34 34 35 36 36 36
13 13 12 13 13 13 14 15 16 16 15 16 15 14 14 15 14 13 12 11 11 11 12 14 16 18 19 21 22 24 25 25 25 26 26 26 26 27 28 28 28 28 27 28 29 29 30 31 31 31 31 31 32 32 32 32 32 32 33 33 34 35 35 36 36 36 35 36 36 36 37 37 37 37 38 38 38 38 38 38 37 37 37 37 36 36 36 35 35 35 35 35 36 37 37 37 37
14 14 13 13 12 13 14 14 15 16 17 17 14 13 14 13 12 12 11 9 9 9 10 11 13 14 16 18 19 21 22 23 24 25 25 26 26 27 27 27 28 28 28 28 28 28 29 29 29 29 30 31 31 31 32 33 33 34 34 34 35 36 37 37 38 37 37 36 37 37 38 38 38 38 38 38 38 38 38 38 38 38 38 38 37 37 37 37 37 37 37 37 37 38 39 39 39
13 12 10 11 13 15 15 15 14 14 15 13 10 9 10 11 11 12 11 8 9 10 9 10 11 13 15 16 17 17 18 19 20 22 23 24 25 26 26 27 27 28 28 28 28 27 28 28 28 29 29 30 31 32 32 33 34 34 35 36 36 37 37 38 38 39 39 38 38 38 38 38 38 38 38 38 38 38 39 38 38 39 39 38 37 37 37 37 38 38 38 38 38 39 39 40 40
10 9 8 11 14 14 12 11 11 9 7 5 5 6 7 9 11 13 12 8 7 8 8 8 9 11 13 14 15 15 16 17 17 19 20 21 23 24 26 27 27 28 28 28 28 28 28 28 29 29 29 30 31 32 33 34 35 35 36 37 37 38 38 39 39 40 41 40 39 38 39 39 38 38 38 38 38 38 39 39 39 39 39 38 37 37 37 38 38 39 39 39 39 39 40 41 41
8 8 7 11 13 12 8 6 6 5 4 3 5 6 5 8 11 13 13 7 4 5 6 8 10 12 13 15 16 17 17 17 18 18 19 20 22 23 24 25 26 26 27 27 27 27 28 28 29 30 30 31 31 32 33 34 35 36 36 37 38 38 39 39 40 40 40 40 39 39 39 39 39 38 39 38 38 39 39 39 39 40 40 39 38 38 38 39 39 40 40 40 40 41 41 42 42
7 6 6 8 9 7 5 4 3 3 4 4 6 5 2 6 10 12 13 7 5 7 9 11 13 14 15 16 17 17 18 18 18 18 19 20 21 22 23 24 25 25 26 26 27 27 28 29 29 30 31 31 32 32 33 34 35 36 36 37 38 38 39 39 39 39 39 40 40 39 39 39 39 39 39 39 39 39 40 40 40 41 41 41 40 40 40 41 41 41 42 42 42 42 43 44 44
4 2 3 3 6 6 4 3 3 1 4 5 6 3 3 6 9 11 12 9 9 11 13 15 15 15 15 15 15 15 15 15 16 16 17 19 20 21 22 23 24 24 25 25 26 26 27 28 28 29 30 31 31 32 33 34 34 35 36 37 38 38 39 39 39 39 39 40 41 41 40 40 40 40 41 41 41 41 42 42 42 43 43 43 43 43 43 43 44 44 44 44 44 44 45 45 46
0 2 6 5 2 6 5 5 4 4 7 6 6 4 6 8 10 10 10 11 13 14 14 14 13 11 10 9 9 9 10 10 11 12 13 15 16 17 18 19 20 21 22 23 24 25 26 26 27 28 29 30 31 32 33 34 34 35 36 37 38 39 39 40 40 40 40 41 42 43 43 42 42 42 43 43 43 43 44 44 44 45 45 45 45 45 46 46 47 47 47 48 48 47 47 48 48
5 4 6 7 1 5 6 6 5 4 6 7 8 7 7 9 10 9 9 11 13 13 11 9 8 7 7 6 7 7 7 7 8 9 10 11 12 13 15 16 17 18 20 21 22 23 25 26 27 28 29 30 31 32 33 34 35 36 37 38 38 39 40 42 42 42 42 42 43 45 45 45 44 45 45 45 45 45 46 46 46 47 47 47 48 48 48 49 49 50 50 50 51 51 51 51 51
5 0 4 5 3 2 6 6 5 3 6 7 8 7 8 8 8 8 9 10 10 8 8 7 8 8 8 9 9 9 9 10 11 12 12 13 13 14 15 16 17 18 19 21 22 24 25 26 27 28 30 31 32 33 34 35 36 37 38 39 40 41 42 44 45 45 44 45 46 47 47 48 48 47 48 48 48 48 48 49 49 49 50 50 51 51 51 51 52 53 53 53 54 54 54 55 55
2 4 5 5 5 2 4 5 5 4 7 8 6 6 7 7 5 8 9 8 7 7 9 10 10 11 11 11 11 12 13 14 15 15 15 15 15 15 16 16 17 18 20 21 22 23 25 26 27 29 30 31 33 34 35 36 38 39 40 41 42 43 44 45 47 47 47 48 48 49 50 51 51 51 51 51 52 52 52 52 52 53 53 54 54 54 54 54 55 55 56 56 56 56 57 57 57
2 4 6 5 4 2 1 5 6 6 8 7 5 7 7 5 5 7 5 6 8 9 10 12 12 13 12 12 13 15 16 17 17 16 16 15 16 16 16 17 18 19 20 21 22 24 25 26 27 29 30 32 33 35 36 38 39 40 42 43 44 45 46 47 49 50 51 51 52 52 53 54 55 55 56 56 56 57 57 57 57 57 58 58 58 58 58 58 58 59 59 59 59 58 58 59 59
4 6 7 4 4 4 2 7 8 8 9 7 5 6 5 4 5 4 5 8 9 11 13 14 14 14 13 13 15 18 19 19 17 17 16 16 16 17 17 18 19 20 21 22 23 24 26 27 28 30 31 33 34 36 37 39 41 42 43 45 46 47 49 50 52 53 54 55 56 57 58 58 60 61 61 62 62 62 62 62 61 61 61 61 61 61 61 61 61 61 61 62 62 61 61 61 61
4 5 6 3 4 5 2 6 8 9 11 8 5 5 2 2 4 5 7 9 10 13 14 15 15 14 13 15 18 20 21 19 18 17 17 17 18 18 19 20 21 22 23 24 25 26 27 29 30 32 33 35 36 37 39 40 42 44 45 47 48 49 51 52 54 55 56 58 60 61 62 62 63 65 66 66 66 65 64 63 63 62 61 61 61 61 61 62 62 62 62 62 62 62 62 62 62
2 3 3 1 3 6 2 4 7 9 11 8 6 5 1 3 6 8 8 9 11 15 17 17 15 14 14 16 20 22 21 19 19 18 18 19 19 20 21 22 23 24 25 26 27 28 29 30 32 33 35 37 38 40 41 43 44 45 47 49 50 51 52 54 56 57 59 60 62 63 64 65 65 66 66 67 67 66 65 63 61 60 58 58 58 58 58 59 59 59 60 60 60 60 60 60 60
1 1 3 3 5 5 1 4 8 11 13 10 6 6 3 5 6 6 7 10 13 17 18 18 16 14 15 17 21 22 22 20 20 20 20 21 22 23 24 25 26 27 27 28 29 30 31 33 34 35 37 38 39 41 43 44 45 46 48 49 50 52 53 55 56 58 59 60 61 62 63 63 63 62 62 62 62 62 61 59 57 55 54 53 53 54 54 54 55 55 56 57 57 58 57 57 56
2 2 4 5 6 7 4 6 12 12 11 8 4 5 3 5 5 2 2 7 13 17 18 18 16 16 16 18 21 22 22 21 21 21 21 22 23 25 26 26 27 28 29 30 31 32 33 35 36 37 39 40 41 43 44 45 47 48 49 50 51 52 53 55 56 56 57 58 58 58 58 58 57 57 56 56 56 56 55 54 52 50 49 48 48 49 49 49 50 50 51 52 53 54 55 55 54
4 5 5 6 7 7 6 5 9 8 6 5 4 2 1 1 3 3 3 6 12 15 17 16 16 16 17 20 22 23 22 21 22 22 23 23 24 26 27 28 29 30 31 32 33 35 36 38 39 41 42 43 44 45 47 48 49 50 51 52 53 54 55 55 56 56 56 56 56 55 54 53 52 52 51 51 52 52 51 50 49 47 46 45 45 45 45 45 45 46 46 47 48 49 50 51 51
7 9 8 8 7 6 6 4 5 4 0 1 1 3 3 6 7 5 5 8 13 15 16 15 16 16 18 20 22 23 23 23 24 24 26 26 27 27 28 29 30 31 33 34 36 37 39 41 42 44 45 46 47 47 49 50 51 52 53 54 55 56 57 57 57 57 56 55 54 53 52 51 49 48 47 48 49 49 48 48 47 46 45 44 44 44 44 44 44 44 44 44 45 45 46 47 47
11 11 10 10 8 3 5 6 1 6 7 9 4 4 6 6 6 5 5 9 13 15 15 16 17 17 19 21 23 24 24 24 26 27 28 29 29 29 29 30 31 32 35 36 37 38 40 41 43 44 46 47 48 48 49 51 52 53 54 54 55 56 56 57 57 56 55 54 53 52 50 49 48 47 46 46 47 47 47 47 46 46 45 44 44 44 44 44 44 44 44 44 44 45 45 46 46
13 12 10 11 7 1 2 4 3 9 6 7 7 1 4 5 5 5 6 9 13 14 15 17 18 19 20 22 23 25 25 26 28 29 30 30 31 31 31 31 31 33 35 36 37 38 40 42 43 44 46 47 48 49 49 50 51 52 53 53 54 54 54 55 55 55 54 54 52 51 50 49 48 46 46 46 46 46 46 46 46 45 44 44 44 43 42 42 42 42 43 43 43 43 44 45 46
14 12 9 7 4 1 1 1 4 7 5 3 8 4 3 5 8 7 6 10 13 13 16 17 18 20 22 23 25 26 27 28 29 30 31 31 32 33 33 33 33 34 36 37 38 39 40 42 43 44 45 47 48 49 49 50 51 51 52 52 53 53 53 53 53 53 53 53 52 51 50 49 48 47 46 45 46 46 46 45 44 43 42 42 41 41 40 40 39 40 40 40 41 41 42 42 44
14 13 10 6 7 6 4 3 4 4 2 1 8 8 5 4 7 7 6 11 13 13 16 18 19 22 23 24 26 27 28 29 30 31 32 32 33 34 35 36 37 37 36 37 38 40 42 43 43 43 45 47 48 49 50 50 51 51 51 52 53 53 53 53 53 52 52 52 52 51 50 49 49 48 47 46 45 45 45 44 42 40 40 39 38 38 37 37 37 37 37 38 39 40 40 41 42
12 14 13 8 8 9 8 6 4 3 1 2 9 13 8 4 5 6 7 11 12 14 17 20 22 25 26 27 29 30 31 32 32 33 34 34 35 36 37 38 38 38 37 37 39 40 42 43 42 43 45 47 48 49 50 50 51 51 51 52 52 53 53 52 52 52 52 51 51 51 50 49 48 47 46 45 44 44 43 42 40 38 37 36 36 35 35 35 36 36 36 37 37 38 39 40 41
12 14 15 10 6 6 5 4 2 1 3 5 12 13 8 8 8 9 10 11 13 15 18 21 24 28 29 30 31 33 35 35 36 37 37 38 38 39 40 41 41 41 39 39 39 41 43 43 43 44 45 47 48 49 49 50 50 50 51 51 52 52 52 51 51 51 51 50 50 50 50 49 49 47 46 45 43 41 41 39 38 36 35 35 35 35 35 35 35 35 35 35 36 37 38 39 40
14 14 14 9 4 3 2 3 2 3 6 10 15 12 7 9 11 12 13 15 16 17 19 22 25 29 31 33 34 36 37 38 39 39 40 41 41 43 44 45 45 44 42 41 40 42 44 44 43 44 46 47 48 48 49 50 50 50 51 51 51 51 51 51 50 50 50 50 50 50 50 49 49 48 46 45 43 40 38 37 36 35 35 35 35 35 35 34 34 34 34 35 36 37 38 39 40
12 11 11 9 7 5 1 2 1 3 9 14 14 7 4 7 13 17 18 19 20 19 20 22 26 29 33 34 36 38 40 40 40 41 41 43 43 45 46 47 47 47 45 43 42 43 45 45 44 44 45 47 48 49 49 50 50 51 51 51 51 51 51 51 50 50 50 50 50 50 50 49 48 47 46 44 42 39 37 36 35 35 35 36 35 35 34 34 34 35 36 36 38 39 39 40 42
10 8 6 8 7 4 1 3 4 6 8 10 8 5 7 13 19 21 20 21 21 19 20 23 27 31 34 35 38 41 42 42 42 42 42 43 44 46 47 47 48 48 47 46 45 46 47 47 46 46 47 49 50 50 50 51 51 51 51 51 51 52 52 51 51 51 50 50 50 50 49 49 47 46 44 42 40 38 37 36 35 35 36 36 36 35 35 35 36 36 37 38 39 40 42 43 44
7 7 5 3 3 3 3 4 6 5 3 5 6 8 14 17 17 19 18 20 20 20 22 27 30 33 35 37 40 43 43 42 43 42 42 44 45 46 47 48 49 49 48 48 48 48 49 49 49 49 50 52 52 52 52 52 52 52 52 52 52 52 52 52 52 51 51 50 50 49 48 47 46 45 43 41 39 37 36 36 36 36 36 37 37 36 36 37 37 38 39 40 41 42 43 45 46
6 5 6 2 1 2 3 2 4 3 0 5 8 12 17 14 13 19 19 18 20 22 27 31 32 34 35 38 42 43 42 41 41 41 42 45 46 47 48 49 49 49 48 49 49 50 50 51 51 52 52 53 53 53 53 53 53 52 52 52 52 52 52 52 52 52 51 50 49 48 47 46 45 43 41 39 38 37 36 36 36 37 37 37 37 37 38 38 39 40 41 42 43 45 46 47 49
9 6 5 3 1 1 2 2 2 2 1 4 7 11 16 16 17 21 20 19 23 26 29 31 32 33 35 40 43 43 41 40 40 42 43 46 47 48 49 49 49 49 49 49 50 50 51 51 52 52 53 54 54 53 53 53 53 53 52 52 52 52 52 52 52 51 50 49 48 47 46 45 44 42 40 38 37 36 36 36 37 37 37 37 37 38 38 39 40 41 43 44 45 47 48 50 51
12 7 4 4 1 2 4 3 3 3 2 4 5 5 12 20 22 23 23 23 26 27 29 31 32 34 37 41 43 42 41 41 41 43 45 47 48 48 49 49 49 49 49 50 50 50 50 50 51 52 53 53 53 53 53 53 53 53 53 53 52 52 51 51 51 50 49 48 47 46 45 44 43 41 39 37 37 36 36 36 37 38 38 38 38 38 39 40 41 42 44 45 47 48 50 51 52
13 9 5 6 4 3 5 6 7 6 3 2 2 4 17 27 25 22 22 22 25 28 30 32 34 36 40 42 42 41 41 42 42 44 46 48 48 49 49 49 48 48 49 49 50 50 50 51 51 51 52 53 53 53 53 53 54 54 53 53 52 52 51 50 50 49 48 47 46 45 44 43 42 40 38 37 37 37 37 36 37 38 38 39 39 39 40 41 42 43 44 46 47 49 51 52 53
14 13 10 10 8 4 5 4 8 10 7 5 4 6 23 33 25 21 23 23 27 30 31 34 36 38 41 41 41 41 42 43 44 45 47 48 48 48 48 48 47 48 48 49 50 50 51 51 50 51 52 52 53 53 54 54 54 54 54 53 52 51 50 49 49 48 47 46 45 44 43 41 40 39 37 37 37 36 36 36 37 37 38 39 39 40 41 42 43 44 45 46 48 50 52 53 54
Wind_Direction
215 215 221 235 241 239 247 250 251 250 249 257 268 279 282 282 281 280 285 278 240 265 287 294 306 312 309 304 306 313 311 306 305 305 293 275 267 265 268 274 280 285 290 295 296 295 296 294 292 288 285 282 279 279 278 278 278 277 277 276 276 274 273 274 276 277 278 279 281 284 286 287 290 293 293 296 297 299 300 300 300 299 299 299 299 299 298 298 298 298 297 296 294 292 293 293 292
223 220 222 237 237 223 233 240 242 243 247 263 275 279 275 270 275 295 298 266 263 281 296 309 317 316 311 307 310 316 311 308 309 307 296 288 280 273 276 282 284 286 289 290 290 293 294 293 292 290 288 284 281 281 279 276 275 276 277 277 274 273 274 275 276 276 278 280 282 285 287 289 292 294 295 297 299 299 298 297 296 295 294 295 296 295 295 295 294 294 293 292 291 290 291 293 291
222 223 218 229 225 209 219 236 234 236 252 267 272 258 273 289 286 292 279 259 276 296 312 321 320 315 312 309 315 317 313 316 314 312 303 299 291 285 293 296 291 291 293 293 292 293 292 291 291 289 287 283 281 279 276 274 274 275 275 275 274 274 275 275 276 278 280 282 285 287 289 292 294 296 298 299 298 297 295 293 292 291 291 291 291 292 292 291 290 290 289 288 288 287 288 290 288
223 226 220 224 223 213 211 234 242 251 260 267 272 259 274 297 298 277 260 268 289 306 319 319 312 309 309 308 314 313 315 328 320 316 312 309 298 296 304 302 297 297 302 304 295 292 291 291 289 287 284 281 280 277 274 274 274 274 274 274 275 275 276 277 278 280 282 285 288 290 292 294 295 296 297 297 296 294 292 290 289 288 286 285 285 286 285 284 283 282 281 281 281 281 282 282 281
223 229 234 236 232 224 214 231 245 254 262 272 282 290 294 286 246 250 266 286 297 306 316 313 309 308 306 307 312 311 317 325 319 319 319 314 302 301 307 303 302 303 311 309 294 291 292 290 287 285 282 280 279 276 275 275 275 274 274 275 276 278 280 281 282 283 285 287 290 292 294 294 295 295 295 293 292 290 288 287 284 280 278 279 279 279 279 279 278 276 275 274 274 276 278 277 277
224 228 233 235 232 234 231 238 245 260 277 286 291 305 305 276 234 245 268 289 300 307 311 309 306 304 303 304 306 309 314 316 316 319 319 312 301 302 306 304 304 306 311 304 294 292 290 289 288 286 283 282 280 279 279 279 278 277 277 277 278 280 283 284 285 286 286 288 291 293 294 293 293 292 290 288 285 283 282 280 276 274 274 275 275 276 276 277 277 277 276 275 274 275 277 276 276
219 223 238 241 238 245 249 256 269 287 300 293 292 301 290 245 227 250 281 300 307 306 307 309 305 301 300 300 302 306 309 310 313 316 316 309 301 303 305 305 309 311 309 299 292 290 288 289 288 286 285 285 284 284 284 284 283 281 281 280 281 282 283 285 286 287 287 289 291 292 292 291 289 287 285 283 280 278 276 273 271 271 271 271 271 272 273 274 275 277 277 277 276 275 276 277 276
218 215 240 239 228 239 253 273 286 296 319 311 294 287 242 213 244 283 304 310 310 306 308 311 306 303 302 302 300 301 304 305 307 311 312 305 302 304 305 308 314 311 302 294 291 290 289 287 285 285 285 285 285 284 285 285 284 283 282 283 283 284 284 284 285 287 289 290 290 289 289 287 285 283 281 278 275 273 270 268 268 269 269 270 271 272 273 274 275 276 277 276 276 276 276 277 277
184 176 216 222 218 233 250 270 283 297 307 296 276 241 221 248 285 302 310 314 313 309 309 306 302 300 300 302 298 298 301 300 302 304 306 302 302 304 306 309 311 304 298 295 293 294 291 287 286 285 285 284 283 283 282 282 283 283 284 285 286 286 286 287 288 289 290 289 288 287 285 284 282 280 277 274 271 270 268 267 268 269 270 271 272 274 276 277 277 277 277 276 275 275 274 275 276
174 159 174 207 229 236 245 253 269 309 301 274 251 233 243 274 291 300 306 311 314 311 307 304 301 299 299 299 293 294 297 295 295 296 300 300 301 304 306 309 308 305 302 298 295 295 293 290 289 288 287 286 285 284 284 285 286 287 287 287 287 287 288 289 290 290 289 289 287 286 284 282 280 278 276 274 272 271 270 270 270 271 272 272 273 274 275 276 276 275 274 273 272 270 269 269 270
208 176 165 218 236 242 250 253 269 305 305 270 252 246 260 283 295 303 309 312 315 310 312 319 309 299 299 294 288 291 294 292 291 293 297 298 301 304 305 306 308 309 305 298 295 294 293 293 293 291 290 289 288 288 289 289 289 290 289 289 289 289 290 290 290 288 287 287 287 286 284 282 280 279 277 276 275 274 273 272 272 273 273 273 273 272 272 272 271 270 269 268 266 265 264 263 264
213 187 188 238 257 269 265 268 284 292 292 293 276 264 281 290 301 313 320 319 315 312 321 339 325 307 298 290 287 289 290 287 289 293 296 298 301 301 301 303 305 305 301 296 292 291 292 292 292 291 289 288 288 289 289 290 290 290 290 291 290 290 290 288 288 287 287 287 286 286 285 283 282 281 280 279 277 276 274 273 272 271 271 271 270 269 268 268 266 265 265 264 262 261 260 259 259
182 180 208 241 262 278 278 275 284 290 290 295 292 294 301 301 312 320 325 322 316 313 317 322 316 303 292 288 289 293 293 289 290 292 295 299 299 299 299 299 299 297 295 291 289 289 289 288 287 286 285 285 286 286 287 288 289 289 289 289 289 288 287 286 286 287 287 287 287 286 285 284 283 282 280 279 277 276 274 272 270 269 268 268 267 266 265 264 264 263 262 262 260 258 257 255 254
170 182 207 229 239 243 254 253 273 291 283 286 288 291 298 302 313 320 321 318 310 302 300 305 302 293 288 291 298 301 295 288 288 290 294 297 297 297 296 293 291 289 288 286 286 285 284 283 282 282 282 282 282 284 285 286 286 286 285 285 285 284 284 284 285 285 286 286 286 285 284 283 281 279 277 276 275 274 273 271 269 267 266 266 265 265 264 262 262 262 261 260 259 257 255 254 252
181 198 211 227 236 243 246 244 285 293 273 266 276 284 292 299 311 316 315 309 298 293 295 293 287 284 284 289 294 291 283 280 283 287 290 291 292 291 289 287 286 284 282 281 281 281 280 279 278 278 278 279 281 282 283 282 280 279 279 281 280 280 281 282 282 282 283 283 282 282 281 280 277 275 274 273 273 272 272 271 270 268 267 265 265 265 264 262 260 259 258 257 256 254 253 252 251
197 211 219 240 257 265 264 288 301 284 247 250 273 282 288 298 310 311 308 296 282 278 273 261 259 258 259 267 271 268 268 271 275 278 281 283 283 283 282 283 282 281 279 277 276 276 276 277 276 275 277 278 279 279 278 276 275 276 277 277 277 277 278 278 278 279 280 280 279 280 279 277 276 275 274 273 273 273 272 272 271 270 269 267 266 265 264 263 260 258 256 255 253 251 249 249 249
215 222 230 252 275 285 291 313 307 272 239 263 283 288 289 299 308 303 290 280 271 262 256 252 251 247 244 248 252 256 260 265 268 270 273 274 274 274 275 277 279 279 278 277 276 274 273 273 275 275 275 275 275 276 277 276 275 275 275 275 275 276 275 276 278 279 280 280 281 281 280 279 279 278 278 278 277 276 275 274 274 272 271 270 269 267 265 263 261 258 255 252 250 248 248 247 247
230 232 242 260 280 311 300 296 300 290 282 284 289 292 293 299 301 289 278 276 274 263 257 255 254 250 246 247 247 253 258 262 265 265 266 266 267 268 270 272 274 275 277 278 279 279 277 274 274 276 277 277 276 274 272 272 273 274 274 275 276 276 278 279 281 283 283 283 284 285 284 284 285 285 284 283 281 279 277 276 275 274 273 272 271 270 267 264 262 259 255 251 248 247 247 247 247
242 243 256 266 259 293 288 284 292 291 292 295 293 293 295 298 293 287 276 269 275 269 264 264 260 254 246 247 250 252 257 260 261 262 261 261 261 262 263 264 266 268 269 271 273 277 278 277 276 277 279 282 282 278 274 274 275 276 276 275 276 278 281 283 286 287 288 288 288 288 288 289 289 289 288 287 285 284 282 280 277 276 274 273 272 271 269 266 263 260 256 252 249 247 247 247 248
272 263 281 294 207 268 280 276 280 283 291 297 294 290 291 293 284 281 272 262 271 268 266 260 254 256 251 247 249 249 248 250 252 253 254 254 254 252 252 254 256 259 261 262 266 270 273 276 277 276 276 278 279 279 279 278 277 276 277 278 280 282 285 287 289 290 291 291 291 291 291 292 292 291 291 289 288 287 286 284 282 280 278 276 274 272 271 269 266 262 258 254 250 249 247 248 248
282 278 304 317 228 263 274 271 276 281 288 293 289 283 283 285 271 268 268 259 257 259 261 254 244 243 246 240 236 238 241 246 250 252 254 255 256 256 255 255 258 262 264 264 266 269 271 273 274 275 275 275 276 277 278 278 277 278 280 283 285 287 289 291 293 293 293 294 293 294 294 294 294 293 292 291 289 288 287 286 285 284 282 280 278 275 273 271 269 265 261 257 253 251 250 249 249
284 291 319 308 255 265 268 267 276 283 287 287 282 278 276 277 269 264 263 252 245 245 245 252 251 242 244 245 242 246 253 259 261 262 264 265 265 266 266 266 268 271 270 268 268 270 273 275 275 276 276 278 279 280 280 280 281 283 285 287 289 291 293 295 296 297 296 295 295 295 295 296 295 295 294 293 292 290 288 287 286 285 284 283 281 278 276 274 271 268 264 260 256 253 252 251 251
282 292 306 287 261 263 265 266 274 282 284 279 276 277 275 275 272 271 266 252 246 246 243 250 259 258 257 257 256 259 264 268 269 270 271 272 273 274 276 277 278 278 276 273 272 273 276 278 278 278 278 279 281 283 284 286 286 286 288 289 291 292 294 295 295 295 294 293 294 295 296 297 297 297 296 295 294 292 290 289 287 285 284 283 282 280 279 278 275 270 266 262 258 255 254 253 253
278 282 292 281 260 257 261 265 274 282 281 275 273 274 273 272 271 271 269 264 260 259 259 259 265 269 270 270 270 270 271 271 270 270 271 273 275 278 281 283 283 283 281 277 275 275 276 277 279 280 280 281 282 284 286 287 287 286 287 288 289 291 292 292 292 292 293 293 294 295 296 297 297 297 297 296 295 294 292 291 289 287 285 284 283 282 280 278 276 273 269 265 261 257 255 254 254
263 271 276 272 261 258 261 268 279 283 279 274 275 274 271 270 270 269 269 270 269 268 268 270 270 272 274 276 278 278 277 275 272 271 271 272 275 278 281 283 285 285 283 280 277 276 275 276 279 281 282 283 284 285 286 286 285 285 286 287 288 289 291 291 292 292 293 294 295 295 296 296 296 296 296 296 295 294 293 292 291 289 287 286 285 284 282 279 277 275 272 269 264 261 258 256 256
258 268 271 271 269 272 275 278 282 282 280 279 279 272 265 266 268 268 269 267 267 267 264 267 270 272 275 276 277 280 280 278 275 274 274 276 279 281 282 283 283 283 281 279 277 276 276 277 279 281 282 283 282 282 282 282 283 284 285 286 288 289 290 291 292 292 292 294 294 295 295 295 295 295 295 294 294 293 293 292 291 290 289 288 286 285 283 281 279 277 274 271 267 264 261 259 258
260 270 274 273 272 275 281 283 284 284 283 286 289 270 261 270 271 267 269 266 264 267 265 264 265 268 271 274 276 279 280 280 279 279 281 282 283 283 282 282 281 279 277 276 275 275 275 276 278 279 280 280 280 280 280 280 281 283 284 285 286 287 288 289 290 290 291 292 292 293 293 293 293 293 293 292 292 292 291 291 290 289 288 287 286 284 282 281 279 277 275 273 270 266 264 262 261
264 268 266 263 266 269 276 286 293 296 298 309 307 280 267 276 277 272 273 273 267 268 271 274 274 274 277 280 283 285 285 285 286 286 287 285 284 283 282 281 280 279 279 277 277 277 276 277 278 279 279 280 280 280 281 281 282 283 284 284 285 286 286 287 288 288 289 290 290 290 290 290 290 290 290 290 289 289 289 288 288 287 286 285 284 282 280 279 278 276 275 273 271 269 267 264 262
280 279 268 261 264 263 261 277 290 301 321 316 295 292 288 287 285 282 281 280 273 276 285 290 293 293 292 292 292 293 293 293 293 291 288 284 281 280 280 279 280 280 281 282 281 281 281 281 281 282 282 282 282 282 282 282 282 283 283 283 283 283 284 284 285 286 287 288 287 287 287 288 288 287 287 287 287 286 286 286 285 285 284 283 281 280 278 277 275 274 274 272 272 270 268 266 265
296 302 292 269 258 248 241 249 258 297 306 290 289 297 310 294 286 283 285 292 303 301 303 304 304 302 299 297 296 295 295 295 294 292 288 285 282 281 281 281 282 283 284 285 285 286 285 286 286 286 286 286 286 285 285 284 283 283 282 282 282 282 283 283 284 284 285 285 286 286 286 286 286 285 285 285 285 284 284 284 283 283 282 281 280 279 278 276 275 274 273 271 271 270 269 268 267
322 358 19 300 240 210 198 208 184 243 275 281 294 271 194 257 268 275 286 299 310 310 310 310 309 307 304 301 298 296 295 294 292 291 289 288 287 287 287 288 289 290 291 292 292 292 292 292 291 291 290 290 289 288 287 286 285 284 283 282 283 283 283 283 283 283 284 284 285 285 285 285 284 284 284 284 284 284 284 283 282 282 281 280 280 279 278 277 276 275 274 272 271 270 269 269 268
258 103 67 44 220 193 177 182 187 235 265 283 297 252 204 240 256 266 285 303 312 316 317 316 315 314 314 312 311 310 306 303 299 295 294 294 295 295 296 298 299 300 301 302 301 300 299 298 297 296 295 294 292 291 290 289 287 286 285 284 284 284 284 284 284 284 284 284 285 285 285 285 284 284 284 284 284 284 284 284 283 282 281 281 281 280 279 279 278 277 276 275 273 272 271 270 270
150 125 64 46 63 186 175 180 200 257 280 290 293 262 227 245 260 271 296 315 320 325 330 335 344 347 353 356 353 352 345 340 333 329 325 321 320 319 317 317 316 315 314 313 311 309 307 305 304 302 300 298 296 295 293 292 290 289 288 287 286 286 286 286 286 285 285 285 285 285 285 285 285 285 285 285 285 285 285 285 284 284 283 282 282 281 281 281 280 279 278 277 276 275 274 273 272
154 50 18 30 37 164 182 202 230 283 293 290 294 271 242 246 268 300 326 335 340 351 4 19 26 26 23 20 16 12 9 8 4 1 358 353 348 344 341 337 334 331 327 324 321 318 316 313 310 308 306 304 302 300 298 296 295 293 292 291 290 289 289 289 289 288 287 287 286 287 287 287 286 286 286 286 286 286 286 286 286 285 285 284 284 283 283 283 282 281 280 279 279 278 277 276 275
324 336 13 50 52 105 188 239 266 299 306 302 304 281 254 246 286 332 341 357 27 40 39 37 32 27 23 18 19 19 17 14 9 6 2 358 354 350 348 344 341 337 332 329 326 322 319 316 313 311 309 307 306 304 302 300 298 297 296 295 293 292 291 290 290 290 289 288 288 287 287 287 288 288 288 288 288 288 288 287 287 287 286 286 285 285 284 284 284 283 282 281 280 280 280 280 279
28 41 47 58 65 88 277 310 307 304 311 312 302 277 261 269 328 349 2 42 52 46 38 33 25 21 21 22 24 20 13 8 4 2 1 358 355 352 349 346 342 338 333 329 326 322 319 316 312 310 308 307 305 304 303 301 300 298 297 296 295 293 292 291 291 291 290 289 289 289 289 289 289 290 290 290 290 290 290 290 290 290 289 288 288 287 286 285 285 284 283 283 282 282 282 281 281
96 91 55 66 106 82 348 317 308 292 305 316 297 275 268 309 347 23 63 64 50 37 31 25 20 19 21 24 19 10 5 2 1 1 360 357 353 350 346 342 339 335 331 327 324 320 317 314 311 309 307 305 303 302 302 301 299 298 296 295 294 293 292 292 291 291 291 291 291 291 291 292 292 292 292 292 292 292 292 292 292 292 291 291 290 289 288 287 286 285 285 284 284 283 282 282 281
118 95 55 91 97 48 359 290 294 282 298 307 272 263 272 4 41 80 73 57 42 31 26 19 17 19 20 16 7 1 359 358 358 357 355 353 349 346 342 338 334 331 327 324 321 318 315 312 310 308 305 303 302 301 300 299 297 296 295 293 292 291 291 291 291 291 291 291 291 291 292 292 293 293 293 293 293 293 293 293 293 292 292 291 290 289 288 287 287 286 285 285 284 283 283 282 281
119 80 39 53 8 16 113 246 292 285 296 302 256 247 124 83 81 80 60 44 34 24 20 16 15 14 10 3 357 355 355 354 354 353 350 347 344 341 337 334 331 328 324 321 318 315 312 309 307 305 303 301 300 298 297 296 295 295 294 294 293 293 293 292 292 292 292 292 292 292 293 293 293 294 294 293 293 293 293 293 292 292 291 290 289 288 287 286 286 285 284 283 283 282 281 281 281
95 47 357 351 336 344 127 228 273 278 291 297 248 215 143 100 95 81 55 37 27 19 15 12 10 5 358 353 351 351 351 350 348 347 345 341 338 335 333 330 328 325 322 318 315 311 308 306 304 302 301 300 299 299 299 298 298 298 298 298 298 298 297 296 296 295 295 295 295 295 295 295 295 295 294 294 293 293 292 292 292 291 290 289 288 286 285 285 284 283 282 282 281 280 279 279 278
72 15 345 342 329 330 338 262 266 277 286 288 239 197 163 123 125 126 46 25 20 15 12 8 2 356 349 344 345 346 346 345 343 341 339 336 334 330 328 327 325 323 319 316 313 311 310 308 307 306 306 306 305 305 305 305 304 304 303 303 302 301 300 299 299 298 298 298 297 297 297 297 297 297 296 296 295 294 294 293 293 292 291 289 288 287 286 285 284 283 282 281 281 280 279 278 277
54 14 345 329 323 329 341 275 253 265 267 254 226 192 265 234 214 238 276 340 1 7 7 4 356 349 343 340 340 341 341 340 338 337 335 333 330 327 326 325 323 321 319 317 317 316 316 315 314 313 313 313 312 310 310 309 308 308 307 306 305 305 304 303 303 302 302 302 301 301 301 300 300 299 299 298 297 296 296 295 294 294 293 291 289 288 287 286 285 284 283 282 282 281 280 279 277
29 4 348 330 320 323 334 302 233 228 95 36 210 217 279 277 264 271 295 328 347 356 359 356 349 343 338 336 336 337 338 336 335 334 333 332 328 326 324 324 323 322 320 320 320 320 319 317 316 315 315 314 312 311 311 310 310 309 309 308 308 307 307 306 306 305 305 305 305 304 304 303 303 302 300 299 298 298 297 296 295 294 293 292 291 289 288 287 286 285 284 283 282 282 281 280 279
18 3 344 320 316 313 318 320 181 139 96 60 60 234 261 257 245 264 298 331 341 346 353 350 342 338 334 333 334 335 335 333 333 332 331 330 328 326 325 324 324 322 321 321 321 321 318 316 314 314 314 312 312 311 311 310 309 309 308 307 307 307 307 307 306 306 307 306 306 306 305 304 304 303 301 300 299 298 297 297 296 295 293 292 291 290 289 288 287 286 285 284 283 283 282 281 280
14 6 340 319 319 253 280 326 109 138 133 53 45 273 259 243 238 266 295 325 337 341 351 347 340 337 333 333 334 333 333 332 332 331 330 329 326 325 324 323 322 321 321 322 321 319 316 313 313 313 312 311 311 310 310 309 309 308 307 307 307 307 307 307 307 307 307 307 306 305 305 304 303 302 301 300 299 298 298 297 296 295 293 292 291 290 289 288 287 286 285 284 284 283 283 282 282
13 11 356 347 12 120 191 41 119 141 175 25 27 2 283 247 252 268 295 320 330 337 345 344 339 336 334 334 333 331 331 331 330 329 328 327 324 322 322 322 323 323 323 322 320 317 314 312 313 313 312 311 311 311 310 310 309 309 309 308 308 308 308 308 307 307 306 305 305 304 304 303 303 302 301 301 300 299 298 297 296 295 293 292 291 290 288 288 287 287 287 286 286 285 285 284 284
14 21 22 36 53 59 73 100 119 118 176 41 18 346 310 265 260 268 300 324 326 326 334 337 336 335 333 333 331 329 328 327 327 326 325 324 322 321 322 323 323 324 323 322 318 315 313 313 314 314 313 312 312 313 312 312 311 311 311 311 311 310 309 308 307 306 305 304 304 303 303 303 303 302 302 301 300 299 298 297 296 294 292 291 290 290 290 289 289 289 289 289 289 288 288 287 287
21 32 40 56 55 55 67 75 93 94 240 306 351 336 308 256 257 282 311 326 322 313 322 332 334 333 333 331 329 328 327 326 325 324 323 322 321 321 322 322 322 323 323 322 318 315 314 314 316 316 314 313 313 314 313 313 313 313 313 312 311 310 309 308 307 306 305 305 304 303 303 303 302 302 301 300 299 298 297 296 294 292 290 290 290 290 290 290 290 291 291 292 292 292 292 291 290
34 42 49 59 49 39 45 30 35 189 251 308 337 333 299 254 266 291 309 320 314 303 312 324 329 330 330 329 329 327 326 326 325 323 322 322 322 322 323 322 322 323 325 323 320 317 315 316 318 316 314 314 314 314 314 314 314 314 313 312 311 310 309 308 308 307 306 305 304 303 303 302 301 301 300 299 298 296 293 292 290 289 288 288 289 289 290 291 292 293 294 294 295 295 295 295 294
41 48 51 61 69 52 1 304 331 294 280 313 329 322 283 265 277 293 302 309 307 297 302 314 319 322 324 324 326 326 325 325 324 323 322 323 324 324 324 323 323 325 326 324 321 318 316 317 318 317 316 315 315 315 314 314 314 314 314 313 312 311 310 309 308 307 306 305 304 303 302 302 301 300 299 298 296 293 289 288 287 287 288 288 289 290 291 292 293 295 296 296 297 297 297 297 296
44 52 58 65 88 106 193 247 205 274 285 304 317 308 257 279 293 297 297 301 301 292 291 304 312 315 318 319 322 324 324 324 323 323 323 325 325 324 323 323 323 324 324 323 321 318 317 318 319 318 316 315 315 315 315 315 315 315 314 314 313 312 311 310 309 308 307 306 304 304 303 302 301 300 298 296 294 290 286 285 286 287 289 290 291 291 292 293 294 295 297 298 299 299 299 299 298
43 49 57 55 70 94 291 270 253 273 293 302 299 263 269 292 297 295 294 297 298 288 286 299 308 310 312 315 320 323 324 323 324 324 325 325 323 322 322 322 322 323 323 322 321 319 319 320 320 319 317 316 316 317 318 317 317 317 316 315 314 313 311 310 309 308 307 306 305 304 303 302 300 299 297 295 291 287 284 285 286 288 290 291 291 291 292 294 295 296 297 299 300 300 300 300 300
35 44 51 47 60 41 349 298 282 294 300 284 272 271 288 298 299 296 294 297 296 290 293 300 304 307 309 314 319 322 322 322 323 324 324 322 321 321 320 320 321 322 322 322 321 320 320 321 321 320 319 318 319 320 319 319 319 318 317 316 314 313 312 310 309 308 307 306 305 304 302 301 300 298 296 292 288 285 284 286 287 289 290 291 291 292 293 295 296 297 298 300 300 301 301 302 301
22 37 47 48 249 4 360 293 310 348 298 264 262 274 289 289 292 301 300 294 296 298 299 301 303 305 309 313 317 320 320 320 321 321 322 321 320 320 319 319 321 321 321 321 320 320 321 321 321 321 320 320 320 320 320 320 319 318 316 315 314 313 311 310 309 308 307 306 305 304 302 300 299 297 294 290 286 284 285 287 288 289 291 292 292 294 295 296 297 298 300 301 302 302 303 303 303
18 10 18 11 257 309 333 304 308 322 290 281 261 264 284 284 289 305 305 297 300 303 302 303 304 306 309 312 316 318 318 318 319 320 321 321 320 319 318 319 320 321 320 320 320 320 321 321 321 320 320 320 320 320 320 319 318 317 316 315 314 312 311 310 309 308 308 307 305 304 302 300 298 296 292 288 285 285 286 287 288 290 291 292 293 295 296 297 298 300 301 302 303 303 304 304 304
17 3 346 347 321 228 294 277 232 239 244 291 283 257 284 298 305 309 305 300 303 305 305 306 307 307 309 311 314 316 316 316 318 319 321 321 319 317 317 319 320 320 319 319 319 320 320 320 320 320 319 319 319 319 318 317 317 316 316 315 314 312 311 310 309 309 308 307 306 304 302 300 298 295 292 288 287 287 287 288 289 290 292 293 294 295 297 298 299 301 302 303 303 304 304 304 304
5 360 352 333 308 251 275 266 243 242 203 237 298 266 287 305 316 311 305 306 307 308 308 307 306 306 307 309 312 314 314 316 319 320 321 319 316 315 316 319 319 318 318 319 320 319 319 320 319 319 318 318 317 317 317 317 317 317 316 315 314 313 312 311 310 309 308 307 306 304 302 300 297 294 291 289 288 288 288 289 290 292 293 295 295 296 297 299 300 302 302 303 303 303 303 303 303
344 348 348 335 324 275 253 253 239 234 220 243 258 267 294 310 321 315 314 315 310 309 307 305 305 305 306 310 313 314 316 318 320 319 318 315 313 314 316 318 318 318 319 319 319 318 318 318 318 317 317 317 317 317 317 318 317 317 316 315 314 314 313 312 311 310 309 308 306 304 302 299 296 294 291 290 289 289 289 290 291 293 294 295 296 297 298 300 301 302 302 303 303 303 303 302 302